FW6732 Weather Reports


Display with metric or nautical units.
time (UTC)temp
F
wind
direction
speed
MPH
gust
MPH
rain 1hr
in
rain 24hr
in
rain mn
in
humidity
%
barometer
mb
20260505230004 55 37 1.0 9.0 0.00 0.00 0.00 71 1008.9
20260505225504 55 14 2.0 9.0 0.00 0.00 0.00 71 1009.2
20260505225003 55 337 2.0 8.0 0.00 0.00 0.00 70 1009.0
20260505224503 55 338 2.0 8.0 0.00 0.00 0.00 70 1008.7
20260505224004 55 354 1.0 5.0 0.00 0.00 0.00 70 1008.6
20260505223503 55 2 2.0 5.0 0.00 0.00 0.00 70 1008.5
20260505223024 56 358 2.0 10.0 0.00 0.00 0.00 70 1008.6
20260505222503 56 16 2.0 10.0 0.00 0.00 0.00 70 1008.6
20260505222003 56 23 2.0 7.0 0.00 0.00 0.00 70 1008.4
20260505221503 56 358 2.0 10.0 0.00 0.00 0.00 70 1008.2
20260505221003 56 350 1.0 10.0 0.00 0.00 0.00 71 1007.9
20260505220503 56 8 1.0 4.0 0.00 0.00 0.00 72 1007.7
20260505220004 56 12 1.0 6.0 0.00 0.00 0.00 72 1008.0
20260505215503 56 17 1.0 7.0 0.00 0.00 0.00 71 1008.3
20260505215003 56 25 1.0 7.0 0.00 0.00 0.00 71 1008.5
20260505214524 56 349 1.0 5.0 0.00 0.00 0.00 72 1008.3
20260505214003 56 355 1.0 11.0 0.00 0.00 0.00 72 1008.1
20260505213525 56 15 1.0 11.0 0.00 0.00 0.00 72 1008.1
20260505213003 56 12 1.0 12.0 0.00 0.00 0.00 72 1008.2
20260505212503 56 354 2.0 12.0 0.00 0.00 0.00 72 1008.3
20260505212003 56 25 1.0 7.0 0.00 0.00 0.00 73 1008.2
20260505211503 56 73 1.0 8.0 0.00 0.00 0.00 73 1008.2
20260505211003 56 32 1.0 8.0 0.00 0.00 0.00 73 1008.0
20260505210503 56 21 1.0 8.0 0.00 0.00 0.00 73 1007.8
20260505210024 56 16 1.0 8.0 0.00 0.00 0.00 73 1007.8
20260505205503 56 14 1.0 8.0 0.00 0.00 0.00 74 1007.6
20260505205003 56 7 1.0 5.0 0.00 0.00 0.00 74 1007.7
20260505204503 56 356 1.0 10.0 0.00 0.00 0.00 75 1007.8
20260505204004 56 18 1.0 10.0 0.00 0.00 0.00 74 1008.1
20260505203503 56 52 1.0 13.0 0.00 0.00 0.00 75 1008.1
20260505203003 56 356 3.0 14.0 0.00 0.00 0.00 74 1008.2
20260505202503 56 346 3.0 14.0 0.00 0.00 0.00 74 1008.1
20260505202024 56 355 3.0 12.0 0.00 0.00 0.00 74 1007.8
20260505201524 56 351 2.0 12.0 0.00 0.00 0.00 75 1007.8
20260505201024 56 352 2.0 11.0 0.00 0.00 0.00 75 1007.7
20260505200503 56 15 2.0 10.0 0.00 0.00 0.00 76 1007.8
20260505200004 56 15 2.0 8.0 0.00 0.00 0.00 76 1007.6
20260505195503 56 358 2.0 9.0 0.00 0.00 0.00 75 1007.6
20260505195003 56 357 2.0 9.0 0.00 0.00 0.00 76 1007.6
20260505194524 56 5 2.0 8.0 0.00 0.00 0.00 76 1007.6
20260505194003 56 350 1.0 8.0 0.00 0.00 0.00 76 1007.7
20260505193503 57 352 1.0 7.0 0.00 0.00 0.00 76 1007.8
20260505193003 57 44 1.0 7.0 0.00 0.00 0.00 76 1007.7
20260505192503 57 50 1.0 11.0 0.00 0.00 0.00 76 1007.7
20260505192004 57 20 2.0 11.0 0.00 0.00 0.00 77 1007.4
20260505191524 57 6 2.0 9.0 0.00 0.00 0.00 77 1007.1
20260505191003 57 360 2.0 13.0 0.00 0.00 0.00 77 1007.1
20260505190524 57 348 2.0 13.0 0.00 0.00 0.00 78 1007.0
20260505190004 57 341 1.0 9.0 0.00 0.00 0.00 78 1007.0
20260505185503 57 358 1.0 10.0 0.00 0.00 0.00 79 1006.9
20260505185003 57 349 2.0 10.0 0.00 0.00 0.00 78 1006.9
20260505184524 57 4 2.0 8.0 0.00 0.00 0.00 78 1006.8
20260505184003 57 354 2.0 9.0 0.00 0.00 0.00 79 1007.0
20260505183503 57 8 2.0 9.0 0.00 0.00 0.00 79 1006.9
20260505183003 57 52 1.0 6.0 0.00 0.00 0.00 79 1006.9
20260505182503 57 355 1.0 6.0 0.00 0.00 0.00 79 1006.7
20260505182004 57 10 1.0 6.0 0.00 0.00 0.00 80 1006.8
20260505181503 57 26 1.0 4.0 0.00 0.00 0.00 80 1006.8
20260505181003 57 12 2.0 5.0 0.00 0.00 0.00 80 1006.9
20260505180503 57 3 2.0 8.0 0.00 0.00 0.00 80 1006.9
20260505180025 57 3 2.0 8.0 0.00 0.00 0.00 81 1006.9
20260505175503 57 7 1.0 8.0 0.00 0.00 0.00 81 1006.5
20260505175024 57 360 1.0 6.0 0.00 0.00 0.00 81 1006.4
20260505174504 57 336 1.0 6.0 0.00 0.00 0.00 81 1006.2
20260505174024 57 316 1.0 6.0 0.00 0.00 0.00 81 1006.0
20260505173503 58 349 1.0 8.0 0.00 0.00 0.00 82 1006.2
20260505173024 57 3 2.0 9.0 0.00 0.00 0.00 81 1006.2
20260505172504 58 337 2.0 9.0 0.00 0.00 0.00 81 1006.1
20260505172003 58 329 1.0 5.0 0.00 0.00 0.00 82 1006.1
20260505171504 58 335 0.0 4.0 0.00 0.00 0.00 82 1006.2
20260505171003 58 340 1.0 8.0 0.00 0.00 0.00 82 1006.3
20260505170503 58 349 2.0 10.0 0.00 0.00 0.00 81 1006.3
20260505170003 58 341 2.0 10.0 0.00 0.00 0.00 81 1005.9
20260505165503 58 329 2.0 8.0 0.00 0.00 0.00 81 1005.7
20260505165003 58 334 2.0 9.0 0.00 0.00 0.00 81 1005.6
20260505164503 59 3 2.0 12.0 0.00 0.00 0.00 81 1005.6
20260505164024 59 5 2.0 12.0 0.00 0.00 0.00 81 1005.6
20260505163503 59 346 2.0 10.0 0.00 0.00 0.00 81 1005.1
20260505163003 59 9 2.0 10.0 0.00 0.00 0.00 81 1005.1
20260505162503 60 74 1.0 6.0 0.00 0.00 0.00 80 1005.1
20260505162003 60 11 2.0 11.0 0.00 0.00 0.00 80 1005.0
20260505161503 60 357 3.0 16.0 0.00 0.00 0.00 80 1005.1
20260505161003 60 357 2.0 16.0 0.00 0.00 0.00 79 1004.8
20260505160503 61 18 2.0 11.0 0.00 0.00 0.00 79 1004.8
20260505153003 64 341 1.0 8.0 0.00 0.00 0.00 77 1004.3
20260505152503 65 358 1.0 8.0 0.00 0.00 0.00 76 1004.3
20260505152003 66 6 1.0 7.0 0.00 0.00 0.00 76 1004.1
20260505151503 67 340 1.0 7.0 0.00 0.00 0.00 77 1004.0
20260505151003 67 34 1.0 4.0 0.00 0.00 0.00 78 1003.9
20260505150524 68 51 1.0 4.0 0.00 0.00 0.00 79 1003.9
20260505140503 69 76 0.0 1.0 0.00 0.00 0.00 82 1002.9
20260505125024 67 90 1.0 5.0 0.00 0.00 0.00 82 1002.8
20260505124503 67 93 1.0 5.0 0.00 0.00 0.00 82 1002.8
20260505124003 67 89 0.0 3.0 0.00 0.00 0.00 82 1002.9
20260505123503 67 94 1.0 3.0 0.00 0.00 0.00 82 1002.7
20260505123024 67 96 1.0 3.0 0.00 0.00 0.00 82 1002.6
20260505122503 67 102 1.0 3.0 0.00 0.00 0.00 82 1002.5
20260505122003 67 100 1.0 3.0 0.00 0.00 0.00 82 1002.4
20260505121503 67 93 1.0 3.0 0.00 0.00 0.00 82 1002.2
20260505121024 67 91 1.0 3.0 0.00 0.00 0.00 82 1002.2
20260505120503 67 106 1.0 4.0 0.00 0.00 0.00 82 1002.4
20260505120004 67 137 1.0 4.0 0.00 0.00 0.00 82 1002.3
20260505115503 67 140 0.0 2.0 0.00 0.00 0.00 82 1002.4
20260505115024 67 141 0.0 3.0 0.00 0.00 0.00 82 1002.4
20260505114524 67 143 0.0 3.0 0.00 0.00 0.00 82 1002.4
20260505114003 67 179 0.0 4.0 0.00 0.00 0.00 82 1002.2
20260505113503 67 122 1.0 4.0 0.00 0.00 0.00 82 1002.1
20260505113024 67 96 0.0 3.0 0.00 0.00 0.00 82 1001.9
20260505112503 67 116 1.0 3.0 0.00 0.00 0.00 82 1002.1
20260505112003 67 116 1.0 3.0 0.00 0.00 0.00 82 1002.0
20260505111503 67 104 0.0 3.0 0.00 0.00 0.00 82 1002.0
20260505111003 67 115 1.0 4.0 0.00 0.00 0.00 82 1001.9
20260505110524 67 146 1.0 4.0 0.00 0.00 0.00 82 1001.9
20260505102003 67 104 0.0 3.0 0.00 0.00 0.00 81 1001.4
20260505101503 67 126 1.0 3.0 0.00 0.00 0.00 80 1001.4
20260505101003 67 122 1.0 3.0 0.00 0.00 0.00 80 1001.3
20260505100503 67 102 1.0 4.0 0.00 0.00 0.00 80 1001.2
20260505100003 68 109 1.0 4.0 0.00 0.00 0.00 79 1001.0
20260505095524 68 113 1.0 4.0 0.00 0.00 0.00 79 1001.0
20260505095003 68 112 1.0 4.0 0.00 0.00 0.00 79 1001.1
20260505094503 68 113 1.0 5.0 0.00 0.00 0.00 79 1001.0
20260505094003 68 113 1.0 5.0 0.00 0.00 0.00 78 1000.9
20260505093524 68 104 1.0 4.0 0.00 0.00 0.00 78 1000.9
20260505093003 68 95 1.0 3.0 0.00 0.00 0.00 78 1000.9
20260505092503 69 95 1.0 3.0 0.00 0.00 0.00 77 1000.8
20260505092024 69 100 1.0 4.0 0.00 0.00 0.00 77 1000.9
20260505091503 69 113 2.0 4.0 0.00 0.00 0.00 77 1000.9
20260505091003 69 117 2.0 4.0 0.00 0.00 0.00 77 1001.1
20260505090503 69 105 1.0 4.0 0.00 0.00 0.00 77 1001.1
20260505090024 69 94 1.0 4.0 0.00 0.00 0.00 76 1001.2
20260505085503 69 99 1.0 4.0 0.00 0.00 0.00 76 1001.1
20260505085024 69 97 0.0 3.0 0.00 0.00 0.00 76 1001.1
20260505084503 69 74 0.0 4.0 0.00 0.00 0.00 76 1001.2
20260505084003 69 98 0.0 4.0 0.00 0.00 0.00 76 1001.1
20260505083503 69 126 1.0 3.0 0.00 0.00 0.00 76 1001.2
20260505083004 69 110 1.0 6.0 0.00 0.00 0.00 76 1001.1
20260505082503 69 100 1.0 6.0 0.00 0.00 0.00 76 1001.3
20260505082003 69 87 0.0 2.0 0.00 0.00 0.00 76 1001.3
20260505081503 69 79 0.0 2.0 0.00 0.00 0.00 75 1001.4
20260505081003 69 86 1.0 5.0 0.00 0.00 0.00 75 1001.3
20260505080503 70 94 1.0 5.0 0.00 0.00 0.00 75 1001.3
20260505080004 70 109 1.0 3.0 0.00 0.00 0.00 75 1001.4
20260505075525 70 111 1.0 3.0 0.00 0.00 0.00 75 1001.4
20260505075004 70 109 1.0 3.0 0.00 0.00 0.00 75 1001.5
20260505074525 70 107 0.0 2.0 0.00 0.00 0.00 75 1001.5
20260505074004 70 106 0.0 3.0 0.00 0.00 0.00 75 1001.7
20260505073504 70 114 1.0 4.0 0.00 0.00 0.00 75 1001.8
20260505073004 70 125 0.0 4.0 0.00 0.00 0.00 74 1001.9
20260505072504 70 128 0.0 3.0 0.00 0.00 0.00 74 1002.0
20260505072004 70 128 0.0 1.0 0.00 0.00 0.00 74 1002.0
20260505071504 70 128 0.0 1.0 0.00 0.00 0.00 74 1002.1
20260505071004 70 134 0.0 1.0 0.00 0.00 0.00 75 1002.1
20260505070504 70 152 0.0 2.0 0.00 0.00 0.00 74 1002.2
20260505070025 70 176 0.0 2.0 0.00 0.00 0.00 74 1002.3
20260505065504 70 213 0.0 1.0 0.00 0.00 0.00 75 1002.4
20260505065004 70 0 0.0 0.0 0.00 0.00 0.00 74 1002.5
20260505064525 70 0 0.0 0.0 0.00 0.00 0.00 74 1002.3
20260505064025 70 0 0.0 0.0 0.00 0.00 0.00 74 1002.5
20260505063504 70 0 0.0 0.0 0.00 0.00 0.00 73 1002.6
20260505063004 70 0 0.0 0.0 0.00 0.00 0.00 73 1002.8
20260505062504 70 0 0.0 0.0 0.00 0.00 0.00 73 1002.8
20260505062025 70 0 0.0 0.0 0.00 0.00 0.00 73 1002.8
20260505061504 71 0 0.0 0.0 0.00 0.00 0.00 73 1002.6
20260505061004 71 0 0.0 0.0 0.00 0.00 0.00 73 1002.5
20260505060504 71 0 0.0 0.0 0.00 0.00 0.00 73 1002.2
20260505060005 71 214 0.0 1.0 0.00 0.00 0.00 73 1002.0
20260505055504 71 214 0.0 1.0 0.00 0.00 0.00 73 1001.9
20260505055004 71 147 0.0 3.0 0.00 0.00 0.00 72 1001.8
20260505054504 71 126 0.0 3.0 0.00 0.00 0.00 72 1001.7
20260505054004 71 334 0.0 3.0 0.00 0.00 0.00 72 1001.7
20260505053504 71 273 0.0 3.0 0.00 0.00 0.00 72 1001.6
20260505053004 71 212 1.0 3.0 0.00 0.00 0.00 71 1001.8
20260505052525 71 162 1.0 3.0 0.00 0.00 0.00 71 1001.8
20260505052025 71 163 1.0 3.0 0.00 0.00 0.00 71 1001.8
20260505051504 71 211 1.0 4.0 0.00 0.00 0.00 71 1002.0
20260505051004 71 201 0.0 4.0 0.00 0.00 0.00 71 1001.8
20260505050504 71 137 1.0 2.0 0.00 0.00 0.00 70 1001.8
20260505041504 72 129 2.0 4.0 0.00 0.00 0.00 68 1001.3
20260505041004 72 116 2.0 4.0 0.00 0.00 0.00 67 1001.5
20260505040504 72 72 2.0 3.0 0.00 0.00 0.00 67 1001.7
20260505040005 72 351 1.0 3.0 0.00 0.00 0.00 67 1001.7
20260505035504 72 227 1.0 4.0 0.00 0.00 0.00 66 1001.9
20260505035025 72 141 1.0 6.0 0.00 0.00 0.00 66 1002.0
20260505034525 72 108 1.0 6.0 0.00 0.00 0.00 66 1002.1
20260505034004 72 104 1.0 6.0 0.00 0.00 0.00 66 1002.0
20260505033504 72 82 1.0 6.0 0.00 0.00 0.00 66 1002.4
20260505033004 72 78 1.0 5.0 0.00 0.00 0.00 65 1002.3
20260505032504 72 115 1.0 4.0 0.00 0.00 0.00 65 1002.3
20260505032004 72 143 1.0 4.0 0.00 0.00 0.00 65 1002.4
20260505031504 72 173 1.0 3.0 0.00 0.00 0.00 64 1002.5
20260505031025 72 224 0.0 3.0 0.00 0.00 0.00 64 1002.5
20260505030504 73 212 1.0 3.0 0.00 0.00 0.00 64 1002.6
20260505030025 73 78 1.0 4.0 0.00 0.00 0.00 64 1002.6
20260505025504 73 94 1.0 4.0 0.00 0.00 0.00 64 1002.6
20260505025004 73 108 1.0 4.0 0.00 0.00 0.00 64 1002.6
20260505024504 73 53 0.0 4.0 0.00 0.00 0.00 64 1002.6
20260505024004 73 248 1.0 5.0 0.00 0.00 0.00 64 1002.8
20260505023504 73 181 1.0 5.0 0.00 0.00 0.00 64 1002.8
20260505023004 73 121 1.0 5.0 0.00 0.00 0.00 63 1002.9
20260505022525 73 157 1.0 4.0 0.00 0.00 0.00 63 1002.9
20260505022004 74 203 1.0 4.0 0.00 0.00 0.00 63 1002.6
20260505021504 74 225 1.0 4.0 0.00 0.00 0.00 63 1002.6
20260505021025 74 204 1.0 3.0 0.00 0.00 0.00 63 1002.6
20260505020504 74 131 1.0 4.0 0.00 0.00 0.00 63 1002.6
20260505020004 74 96 1.0 4.0 0.00 0.00 0.00 63 1002.7
20260505015504 74 92 1.0 3.0 0.00 0.00 0.00 63 1002.7
20260505015004 74 79 1.0 2.0 0.00 0.00 0.00 63 1002.8
20260505014505 74 33 1.0 3.0 0.00 0.00 0.00 63 1002.7
20260505014004 75 327 0.0 3.0 0.00 0.00 0.00 63 1002.5
20260505013504 75 307 0.0 3.0 0.00 0.00 0.00 63 1002.5
20260505013004 75 329 1.0 3.0 0.00 0.00 0.00 63 1002.7
20260505012504 75 19 1.0 4.0 0.00 0.00 0.00 63 1002.6
20260505012025 75 43 1.0 4.0 0.00 0.00 0.00 63 1002.5
20260505011504 75 49 1.0 3.0 0.00 0.00 0.00 62 1002.5
20260505011004 76 52 1.0 4.0 0.00 0.00 0.00 62 1002.4
20260505010504 76 69 0.0 4.0 0.00 0.00 0.00 62 1002.3
20260505010025 76 233 0.0 2.0 0.00 0.00 0.00 61 1002.4
20260505005504 76 258 1.0 7.0 0.00 0.00 0.00 61 1002.5
20260505005025 76 228 1.0 7.0 0.00 0.00 0.00 61 1002.5
20260505004525 76 223 1.0 7.0 0.00 0.00 0.00 61 1002.5
20260505004025 76 216 1.0 7.0 0.00 0.00 0.00 60 1002.5
20260505003504 77 185 1.0 4.0 0.00 0.00 0.00 61 1002.5
20260505003004 77 218 1.0 4.0 0.00 0.00 0.00 60 1002.7
20260505002504 77 224 1.0 4.0 0.00 0.00 0.00 60 1002.5
20260505002004 77 112 1.0 4.0 0.00 0.00 0.00 60 1002.6
20260505001504 77 93 1.0 3.0 0.00 0.00 0.00 60 1002.6
20260505001004 77 95 1.0 4.0 0.00 0.00 0.00 60 1002.8
20260505000504 77 185 1.0 7.0 0.00 0.00 0.00 60 1003.1
20260505000025 78 218 1.0 7.0 0.00 0.00 0.00 60 1003.2
20260504235504 78 211 1.0 5.0 0.00 0.00 0.00 60 1003.1
20260504235004 78 295 1.0 5.0 0.00 0.00 0.00 60 1003.1
20260504234504 78 281 1.0 7.0 0.00 0.00 0.00 60 1003.0
20260504234004 78 235 1.0 7.0 0.00 0.00 0.00 60 1003.0
20260504233504 78 286 1.0 5.0 0.00 0.00 0.00 61 1003.0
20260504233004 78 264 1.0 4.0 0.00 0.00 0.00 60 1003.2
20260504232504 78 240 1.0 5.0 0.00 0.00 0.00 60 1003.0
20260504232004 78 84 1.0 5.0 0.00 0.00 0.00 60 1003.1
20260504231504 78 96 1.0 5.0 0.00 0.00 0.00 60 1003.0
20260504231004 78 179 1.0 5.0 0.00 0.00 0.00 60 1003.2
20260504230504 78 188 1.0 10.0 0.00 0.00 0.00 60 1003.1